SCP
-0 -0 -0 -0 -0 -0 -0 -0 0 0 -0 -0 -0 -0 -0 -0 -0 -0 -0 -0 -0 -0 -0 -0 -0 0 0 0 0 0 0 0 -0 -0 -0 -0 0 0 0 0 0 0 0
-0 -0 -0 -0 -0 -0 -0 0 0 0 0 0 -0 -0 -0 -0 -0 -0 -0 -0 -0 -0 -0 -0 -0 0 0 0 0 0 0 -0 -0 -0 -0 -0 0 0 0 0 0 0 0
-0 -0 -0 -0 -0 -0 0 0 0 0 0 0 -0 0 -0 -0 -0 -0 -0 -0 -0 -0 -0 0 0 0 0 0 0 0 -0 -0 -0 -0 -0 -0 0 0 0 0 0 0 0
-0 -0 -0 -0 -0 -0 0 0 0 0 0 0 0 0 0 -0 -0 -0 -0 -0 -0 -0 -0 0 0 0 0 0 0 -0 -0 -0 -0 -0 -0 0 0 0 0 0 0 0 0
-0 -0 -0 0 -0 0 0 0 0 0 0 0 0 0 0 -0 -0 -0 -0 -0 -0 -0 -0 -0 -0 0 0 -0 0 -0 -0 -0 -0 -0 0 0 0 0 0 0 0 0 0
0 0 -0 0 0 0 0 0 0 0 0 0 0 0 0 -0 -0 -0 -0 -0 -0 -0 -0 -0 -0 0 -0 0 0 -0 -0 -0 -0 0 0 0 0 0 -0 -0 0 0 0
0 0 0 0 0 0 0 0 0 0 0 0 0 0 0 0 0 0 0 0 0 -0 -0 -0 -0 0 0 0 0 -0 -0 -0 -0 0 0 0 0 -0 -0 0 0 0 0
0 0 0 0 0 0 0 0 0 0 0 0 0 0 0 0 0 0 0 0 -0 -0 -0 0 -0 0 0 0 0 -0 -0 -0 -0 0 0 0 0 0 0 0 0 0 0
0 0 0 0 0 0 0 0 0 0 0 0 0 0 0 0 0 0 0 0 -0 -0 0 0 -0 0 0 0 0 0 -0 -0 0 0 0 0 0 0 0 0 0 0 0
0 0 0 0 0 0 0 0 0 0 0 0 0 0 0 0 0 0 0 0 0 0 0 0 0 0 0 0 0 0 -0 -0 0 0 0 0 0 0 0 0 0 0 0
0 0 0 0 0 0 0 0 0 0 0 0 0 0 0 0 0 0 0 0 0 0 0 0 0 0 0 0 0 -0 -0 0 0 0 0 0 0 0 0 0 0 0 0
0 0 0 0 0 0 0 0 0 0 0 0 0 0 0 0 0 0 0 0 0 0 0 0 0 -0 -0 0 0 -0 0 0 0 0 0 0 0 0 0 0 0 0 0
0 0 0 0 0 0 0 0 0 0 0 0 0 0 0 0 0 0 0 0 0 -0 0 0 0 0 0 0 0 0 0 0 0 0 0 0 0 0 0 0 0 0 0
0 0 0 0 0 0 0 0 0 0 0 0 0 0 0 0 0 0 0 0 0 0 0 0 0 0 0 0 0 0 0 0 0 0 0 0 0 0 0 0 0 0 0
0 0 0 0 0 0 0 0 0 0 0 0 0 0 0 0 0 0 0 0 0 0 0 0 0 0 0 0 0 0 0 0 0 0 0 0 0 0 0 0 0 0 0
0 0 0 0 0 0 0 0 0 0 0 0 0 0 0 0 0 0 0 0 0 0 0 0 0 0 0 0 0 0 0 0 0 0 0 0 0 0 0 0 0 0 0
0 0 0 0 0 0 0 0 0 0 0 0 0 0 0 0 0 0 0 0 0 0 0 0 0 0 0 0 0 0 0 0 0 0 0 0 0 0 0 0 0 0 0
0 0 0 0 0 0 0 0 0 0 0 0 0 0 0 0 0 0 0 0 0 0 0 0 0 0 0 0 0 0 0 0 0 0 0 0 0 0 0 0 0 0 0
0 0 0 0 0 0 0 0 0 0 0 0 0 0 0 0 0 0 0 0 0 0 0 0 0 0 0 0 0 0 0 0 0 0 0 0 0 0 0 0 0 0 0
0 0 0 0 0 0 0 0 0 0 0 0 0 0 0 0 0 0 0 0 0 0 0 0 0 0 0 0 0 0 0 0 0 0 0 0 0 0 0 0 0 0 0
0 0 0 0 0 0 0 0 0 0 0 0 0 0 0 0 0 0 0 0 0 0 0 0 0 0 0 0 0 0 0 0 0 0 0 0 0 0 0 0 0 0 0
0 0 0 0 0 0 0 0 0 0 0 0 0 0 0 0 0 0 0 0 0 0 0 0 0 0 0 0 0 0 0 0 0 0 0 0 0 0 0 0 0 0 0
0 0 0 0 0 0 0 0 0 0 0 0 0 0 0 0 0 0 0 0 0 0 0 0 0 0 0 0 0 0 0 0 0 0 0 0 0 0 0 0 0 0 0
0 0 0 0 0 0 0 0 0 0 0 0 0 0 0 0 0 0 0 0 0 0 0 0 0 0 0 0 0 0 0 0 0 0 0 0 0 0 0 0 0 0 0
0 0 0 0 0 0 0 0 0 0 0 0 0 0 0 0 0 0 0 0 0 0 0 0 0 0 0 0 0 0 0 0 0 0 0 0 0 0 0 0 0 0 0
0 0 0 0 0 0 0 0 0 0 0 0 0 0 0 0 0 0 0 0 0 0 0 0 0 0 0 0 0 0 0 0 0 0 0 0 0 0 0 0 0 0 0
Wind_Speed_500mb
40 51 55 47 39 34 29 29 27 24 26 29 36 39 37 35 33 36 29 31 30 28 27 25 23 23 23 22 23 23 23 23 24 25 26 27 25 25 28 27 28 19 27
50 55 55 49 40 33 30 30 28 26 28 31 36 38 34 37 41 39 37 33 30 27 25 23 22 22 22 21 20 19 20 20 19 20 20 27 20 21 24 22 26 25 19
53 55 57 50 40 32 33 30 28 29 31 33 34 35 34 37 40 39 35 31 28 24 22 22 21 20 20 20 17 15 15 17 19 22 29 17 20 18 21 24 26 23 22
50 54 56 51 42 36 34 29 27 28 32 36 35 38 37 36 38 36 33 29 26 23 22 21 19 17 16 15 15 14 15 17 21 29 18 15 16 16 23 25 26 24 23
50 50 52 53 44 40 35 30 27 27 30 36 37 35 37 37 37 35 32 28 24 22 20 19 17 13 13 13 13 13 14 18 28 24 16 18 8 22 20 23 23 22 22
47 49 52 53 47 43 37 31 27 27 31 33 35 35 37 37 36 33 28 26 23 22 19 16 13 11 11 12 11 12 14 21 28 17 15 18 16 19 19 23 24 25 22
53 54 53 57 50 46 38 33 28 26 29 33 35 35 37 38 36 31 28 25 22 20 16 13 11 9 8 9 9 11 13 20 23 16 11 16 19 18 19 20 20 17 14
55 52 55 56 52 47 39 34 29 25 27 31 35 36 36 36 34 30 27 24 21 18 15 12 10 8 8 7 7 11 20 26 16 15 11 16 16 14 13 9 8 9 9
53 50 50 54 52 47 41 36 30 26 28 31 35 35 36 36 32 29 27 24 20 17 14 11 8 7 4 5 4 7 14 23 19 10 8 9 7 10 18 14 11 7 7
53 54 48 51 55 50 44 39 33 27 29 32 34 35 35 34 30 28 25 23 20 17 14 9 6 8 6 9 9 11 21 23 12 9 4 7 7 20 17 18 13 6 13
56 52 49 50 51 50 48 45 38 30 27 31 32 35 35 32 30 28 27 23 20 16 10 4 5 7 6 7 12 19 28 11 7 7 8 7 8 16 18 18 9 7 8
62 52 52 51 51 49 48 49 46 36 31 35 38 39 36 27 27 23 25 23 19 13 5 6 2 3 11 6 12 19 16 17 5 10 13 5 8 13 15 15 8 6 9
64 62 59 53 50 53 55 55 53 42 35 33 38 42 29 28 34 29 25 23 16 8 4 4 2 2 5 8 11 14 17 18 9 11 14 6 6 11 15 7 9 6 7
59 64 66 54 55 55 55 57 58 49 39 35 36 39 32 30 30 23 20 17 15 10 16 9 7 6 5 9 12 14 16 16 8 12 13 5 2 12 8 11 11 7 10
60 61 67 61 62 60 60 60 62 43 42 36 40 42 32 29 30 26 25 26 23 18 12 11 8 7 8 10 12 12 15 16 13 7 10 9 7 16 18 16 10 5 17
63 58 68 61 61 65 57 66 67 43 40 36 36 40 34 29 29 29 35 26 22 16 15 13 11 10 12 12 11 12 14 15 13 9 10 12 12 13 17 20 22 24 27
66 61 74 69 64 60 61 64 59 43 42 41 38 37 38 31 26 35 39 25 24 22 16 14 13 14 14 13 14 15 14 14 14 13 10 13 16 16 18 23 27 27 28
63 72 63 73 75 66 61 64 52 45 42 40 39 34 37 35 36 47 35 30 25 22 18 16 16 17 16 15 15 16 16 16 15 16 18 19 18 21 23 24 24 24 23
67 65 72 76 76 70 68 64 51 46 46 39 35 38 37 37 49 40 35 31 26 23 20 20 21 21 20 19 18 18 18 17 19 22 22 22 23 25 23 22 23 23 21
69 64 68 74 77 73 71 67 57 46 43 34 38 40 37 49 46 40 37 33 30 28 25 25 25 24 24 22 20 18 19 21 22 24 24 26 26 25 25 25 23 23 23
65 68 68 74 86 79 80 79 67 53 52 46 41 42 54 50 48 40 36 37 33 31 29 28 28 27 26 24 21 20 20 22 25 28 29 30 28 28 27 26 26 26 25
76 79 76 77 77 87 86 81 77 69 54 52 60 56 53 50 47 40 40 34 33 33 33 34 32 31 30 28 20 17 12 21 30 32 33 32 31 30 29 29 29 27 28
84 82 84 81 78 83 79 62 69 66 67 65 61 58 56 50 42 41 39 34 35 36 35 35 35 33 29 32 30 17 10 11 17 24 29 33 33 33 33 33 32 32 31
84 89 86 78 79 77 75 73 79 88 80 76 67 58 55 51 48 46 43 38 39 38 38 38 36 35 32 30 32 34 34 25 12 13 25 28 33 35 35 36 36 35 34
88 86 86 81 83 78 86 79 81 80 73 72 67 61 61 55 52 49 46 42 42 43 42 39 37 35 32 30 29 31 33 35 35 34 18 27 31 33 37 38 39 40 37
82 86 74 78 80 85 85 85 85 80 73 72 67 67 63 59 56 54 51 47 47 45 41 39 37 36 31 29 31 32 28 23 26 30 28 24 35 34 33 38 41 43 41
Wind_Direction_500mb
168 174 171 178 178 175 175 172 169 169 163 158 152 158 165 162 170 168 155 144 128 119 114 110 105 103 99 96 93 92 89 85 80 75 71 64 59 46 38 43 56 25 22
163 175 172 178 180 176 173 165 162 164 161 157 156 157 159 154 151 153 148 134 127 121 116 112 110 108 104 99 94 90 84 78 73 68 60 46 45 40 28 39 27 23 22
162 170 172 178 177 173 171 162 160 159 159 152 153 153 149 146 145 140 135 132 126 122 121 118 114 108 101 93 88 85 79 70 66 63 58 50 18 29 40 24 16 20 26
163 173 172 177 174 171 168 163 161 161 161 158 151 153 145 150 141 138 138 134 131 134 128 123 115 104 95 86 79 79 75 67 66 61 53 49 35 23 24 17 21 41 46
168 165 179 176 176 168 168 165 161 163 163 161 159 156 155 148 145 146 143 140 140 135 131 125 115 105 91 78 80 74 69 70 61 53 42 79 54 42 22 35 43 50 49
168 166 187 180 177 169 169 165 164 163 163 162 161 161 156 154 153 151 146 142 147 142 137 127 116 105 86 73 73 66 64 69 64 56 68 58 57 35 41 48 62 71 68
171 175 184 179 179 174 171 168 168 165 167 166 165 161 161 159 156 154 150 150 149 144 138 128 119 102 77 68 66 60 57 78 87 70 71 72 51 49 62 74 75 64 60
176 177 174 176 182 177 176 173 170 165 167 169 169 167 166 163 159 158 154 155 153 150 144 134 115 87 66 62 62 64 74 80 76 92 83 74 63 70 54 45 45 30 19
179 175 171 175 183 181 179 178 175 169 170 172 173 171 169 166 164 162 160 161 157 156 147 139 117 92 62 22 44 60 89 104 94 122 103 64 35 356 61 55 58 50 21
180 169 173 175 183 187 184 186 182 175 174 175 176 173 173 170 168 168 167 166 166 162 157 146 100 45 62 39 62 86 87 84 130 130 126 77 338 73 63 69 72 57 54
181 173 176 178 182 187 188 188 183 177 178 179 179 174 175 175 175 173 176 175 176 173 169 144 94 45 31 52 82 97 91 107 152 131 95 71 53 53 68 69 75 80 25
177 179 179 179 183 189 194 191 185 183 185 183 183 182 178 181 179 176 184 183 183 180 204 120 95 41 67 52 93 97 118 111 151 140 131 134 10 50 68 59 103 101 331
181 183 176 179 183 188 197 193 191 189 194 185 185 183 177 182 192 186 187 184 185 196 179 198 193 180 185 150 143 138 139 127 182 164 154 187 7 53 76 106 139 129 324
187 193 187 178 181 196 195 195 197 195 193 189 189 185 187 184 187 177 190 186 189 181 196 213 227 253 217 187 163 151 142 136 163 142 163 216 106 75 110 125 146 249 311
193 191 191 182 181 196 202 195 196 192 199 195 195 191 190 187 189 184 191 197 191 190 207 224 238 238 204 180 180 173 166 159 168 199 200 206 191 123 130 154 208 260 299
196 194 187 190 190 195 202 195 203 198 199 198 196 197 190 191 190 190 202 197 190 186 206 229 236 220 202 198 196 192 187 183 190 212 212 217 229 231 223 229 252 273 293
200 192 197 191 189 197 204 198 201 197 200 201 198 197 199 192 189 205 213 198 202 216 230 243 232 215 212 206 204 198 195 198 206 208 225 226 230 246 255 264 275 281 297
195 198 201 198 198 199 199 203 200 202 203 204 199 195 204 195 200 216 214 208 211 228 236 239 223 212 209 207 206 203 207 214 218 224 228 242 252 255 263 275 283 291 299
206 201 206 201 203 199 202 204 203 207 208 205 196 199 200 198 212 216 213 215 218 230 238 233 221 216 215 213 214 217 220 223 227 239 245 254 260 268 274 280 289 298 304
208 201 207 208 205 201 205 209 206 206 205 198 199 202 199 211 212 217 216 220 230 236 240 231 223 218 220 219 219 220 225 230 239 250 254 258 263 268 278 287 291 297 303
203 201 206 207 206 204 206 207 210 200 203 203 201 198 206 215 215 213 217 229 235 241 238 229 222 222 221 217 212 217 228 241 249 256 259 261 264 269 277 282 288 296 302
211 206 201 208 208 207 209 209 211 211 208 205 209 214 217 215 218 217 228 232 236 242 234 226 221 219 220 213 208 224 244 259 258 256 257 260 266 268 273 277 284 289 292
210 211 210 213 212 210 204 197 210 209 208 211 214 216 215 211 216 223 226 235 237 238 234 227 222 221 228 221 215 211 207 236 259 274 258 261 265 267 271 274 279 282 286
206 211 216 218 217 212 198 199 211 212 212 216 218 215 212 210 216 222 227 233 237 237 233 228 225 224 227 228 230 238 244 235 236 273 280 274 267 264 268 270 277 281 283
208 215 217 217 222 217 206 202 206 216 216 219 220 211 213 216 217 224 230 234 235 234 230 228 226 228 226 235 240 252 251 250 249 241 261 280 277 271 266 268 277 279 282
208 208 212 213 213 206 204 210 217 214 213 213 213 212 217 219 221 226 231 233 233 231 228 224 221 218 224 234 243 247 252 255 267 251 253 253 275 283 274 272 274 276 279
Wind_Speed_850mb
40 51 55 47 39 34 29 29 27 24 26 29 36 39 37 35 33 36 29 31 30 28 27 25 23 23 23 22 23 23 23 23 24 25 26 27 25 25 28 27 28 19 27
50 55 55 49 40 33 30 30 28 26 28 31 36 38 34 37 41 39 37 33 30 27 25 23 22 22 22 21 20 19 20 20 19 20 20 27 20 21 24 22 26 25 19
53 55 57 50 40 32 33 30 28 29 31 33 34 35 34 37 40 39 35 31 28 24 22 22 21 20 20 20 17 15 15 17 19 22 29 17 20 18 21 24 26 23 22
50 54 56 51 42 36 34 29 27 28 32 36 35 38 37 36 38 36 33 29 26 23 22 21 19 17 16 15 15 14 15 17 21 29 18 15 16 16 23 25 26 24 23
50 50 52 53 44 40 35 30 27 27 30 36 37 35 37 37 37 35 32 28 24 22 20 19 17 13 13 13 13 13 14 18 28 24 16 18 8 22 20 23 23 22 22
47 49 52 53 47 43 37 31 27 27 31 33 35 35 37 37 36 33 28 26 23 22 19 16 13 11 11 12 11 12 14 21 28 17 15 18 16 19 19 23 24 25 22
53 54 53 57 50 46 38 33 28 26 29 33 35 35 37 38 36 31 28 25 22 20 16 13 11 9 8 9 9 11 13 20 23 16 11 16 19 18 19 20 20 17 14
55 52 55 56 52 47 39 34 29 25 27 31 35 36 36 36 34 30 27 24 21 18 15 12 10 8 8 7 7 11 20 26 16 15 11 16 16 14 13 9 8 9 9
53 50 50 54 52 47 41 36 30 26 28 31 35 35 36 36 32 29 27 24 20 17 14 11 8 7 4 5 4 7 14 23 19 10 8 9 7 10 18 14 11 7 7
53 54 48 51 55 50 44 39 33 27 29 32 34 35 35 34 30 28 25 23 20 17 14 9 6 8 6 9 9 11 21 23 12 9 4 7 7 20 17 18 13 6 13
56 52 49 50 51 50 48 45 38 30 27 31 32 35 35 32 30 28 27 23 20 16 10 4 5 7 6 7 12 19 28 11 7 7 8 7 8 16 18 18 9 7 8
62 52 52 51 51 49 48 49 46 36 31 35 38 39 36 27 27 23 25 23 19 13 5 6 2 3 11 6 12 19 16 17 5 10 13 5 8 13 15 15 8 6 9
64 62 59 53 50 53 55 55 53 42 35 33 38 42 29 28 34 29 25 23 16 8 4 4 2 2 5 8 11 14 17 18 9 11 14 6 6 11 15 7 9 6 7
59 64 66 54 55 55 55 57 58 49 39 35 36 39 32 30 30 23 20 17 15 10 16 9 7 6 5 9 12 14 16 16 8 12 13 5 2 12 8 11 11 7 10
60 61 67 61 62 60 60 60 62 43 42 36 40 42 32 29 30 26 25 26 23 18 12 11 8 7 8 10 12 12 15 16 13 7 10 9 7 16 18 16 10 5 17
63 58 68 61 61 65 57 66 67 43 40 36 36 40 34 29 29 29 35 26 22 16 15 13 11 10 12 12 11 12 14 15 13 9 10 12 12 13 17 20 22 24 27
66 61 74 69 64 60 61 64 59 43 42 41 38 37 38 31 26 35 39 25 24 22 16 14 13 14 14 13 14 15 14 14 14 13 10 13 16 16 18 23 27 27 28
63 72 63 73 75 66 61 64 52 45 42 40 39 34 37 35 36 47 35 30 25 22 18 16 16 17 16 15 15 16 16 16 15 16 18 19 18 21 23 24 24 24 23
67 65 72 76 76 70 68 64 51 46 46 39 35 38 37 37 49 40 35 31 26 23 20 20 21 21 20 19 18 18 18 17 19 22 22 22 23 25 23 22 23 23 21
69 64 68 74 77 73 71 67 57 46 43 34 38 40 37 49 46 40 37 33 30 28 25 25 25 24 24 22 20 18 19 21 22 24 24 26 26 25 25 25 23 23 23
65 68 68 74 86 79 80 79 67 53 52 46 41 42 54 50 48 40 36 37 33 31 29 28 28 27 26 24 21 20 20 22 25 28 29 30 28 28 27 26 26 26 25
76 79 76 77 77 87 86 81 77 69 54 52 60 56 53 50 47 40 40 34 33 33 33 34 32 31 30 28 20 17 12 21 30 32 33 32 31 30 29 29 29 27 28
84 82 84 81 78 83 79 62 69 66 67 65 61 58 56 50 42 41 39 34 35 36 35 35 35 33 29 32 30 17 10 11 17 24 29 33 33 33 33 33 32 32 31
84 89 86 78 79 77 75 73 79 88 80 76 67 58 55 51 48 46 43 38 39 38 38 38 36 35 32 30 32 34 34 25 12 13 25 28 33 35 35 36 36 35 34
88 86 86 81 83 78 86 79 81 80 73 72 67 61 61 55 52 49 46 42 42 43 42 39 37 35 32 30 29 31 33 35 35 34 18 27 31 33 37 38 39 40 37
82 86 74 78 80 85 85 85 85 80 73 72 67 67 63 59 56 54 51 47 47 45 41 39 37 36 31 29 31 32 28 23 26 30 28 24 35 34 33 38 41 43 41
Wind_Direction_850mb
168 174 171 178 178 175 175 172 169 169 163 158 152 158 165 162 170 168 155 144 128 119 114 110 105 103 99 96 93 92 89 85 80 75 71 64 59 46 38 43 56 25 22
163 175 172 178 180 176 173 165 162 164 161 157 156 157 159 154 151 153 148 134 127 121 116 112 110 108 104 99 94 90 84 78 73 68 60 46 45 40 28 39 27 23 22
162 170 172 178 177 173 171 162 160 159 159 152 153 153 149 146 145 140 135 132 126 122 121 118 114 108 101 93 88 85 79 70 66 63 58 50 18 29 40 24 16 20 26
163 173 172 177 174 171 168 163 161 161 161 158 151 153 145 150 141 138 138 134 131 134 128 123 115 104 95 86 79 79 75 67 66 61 53 49 35 23 24 17 21 41 46
168 165 179 176 176 168 168 165 161 163 163 161 159 156 155 148 145 146 143 140 140 135 131 125 115 105 91 78 80 74 69 70 61 53 42 79 54 42 22 35 43 50 49
168 166 187 180 177 169 169 165 164 163 163 162 161 161 156 154 153 151 146 142 147 142 137 127 116 105 86 73 73 66 64 69 64 56 68 58 57 35 41 48 62 71 68
171 175 184 179 179 174 171 168 168 165 167 166 165 161 161 159 156 154 150 150 149 144 138 128 119 102 77 68 66 60 57 78 87 70 71 72 51 49 62 74 75 64 60
176 177 174 176 182 177 176 173 170 165 167 169 169 167 166 163 159 158 154 155 153 150 144 134 115 87 66 62 62 64 74 80 76 92 83 74 63 70 54 45 45 30 19
179 175 171 175 183 181 179 178 175 169 170 172 173 171 169 166 164 162 160 161 157 156 147 139 117 92 62 22 44 60 89 104 94 122 103 64 35 356 61 55 58 50 21
180 169 173 175 183 187 184 186 182 175 174 175 176 173 173 170 168 168 167 166 166 162 157 146 100 45 62 39 62 86 87 84 130 130 126 77 338 73 63 69 72 57 54
181 173 176 178 182 187 188 188 183 177 178 179 179 174 175 175 175 173 176 175 176 173 169 144 94 45 31 52 82 97 91 107 152 131 95 71 53 53 68 69 75 80 25
177 179 179 179 183 189 194 191 185 183 185 183 183 182 178 181 179 176 184 183 183 180 204 120 95 41 67 52 93 97 118 111 151 140 131 134 10 50 68 59 103 101 331
181 183 176 179 183 188 197 193 191 189 194 185 185 183 177 182 192 186 187 184 185 196 179 198 193 180 185 150 143 138 139 127 182 164 154 187 7 53 76 106 139 129 324
187 193 187 178 181 196 195 195 197 195 193 189 189 185 187 184 187 177 190 186 189 181 196 213 227 253 217 187 163 151 142 136 163 142 163 216 106 75 110 125 146 249 311
193 191 191 182 181 196 202 195 196 192 199 195 195 191 190 187 189 184 191 197 191 190 207 224 238 238 204 180 180 173 166 159 168 199 200 206 191 123 130 154 208 260 299
196 194 187 190 190 195 202 195 203 198 199 198 196 197 190 191 190 190 202 197 190 186 206 229 236 220 202 198 196 192 187 183 190 212 212 217 229 231 223 229 252 273 293
200 192 197 191 189 197 204 198 201 197 200 201 198 197 199 192 189 205 213 198 202 216 230 243 232 215 212 206 204 198 195 198 206 208 225 226 230 246 255 264 275 281 297
195 198 201 198 198 199 199 203 200 202 203 204 199 195 204 195 200 216 214 208 211 228 236 239 223 212 209 207 206 203 207 214 218 224 228 242 252 255 263 275 283 291 299
206 201 206 201 203 199 202 204 203 207 208 205 196 199 200 198 212 216 213 215 218 230 238 233 221 216 215 213 214 217 220 223 227 239 245 254 260 268 274 280 289 298 304
208 201 207 208 205 201 205 209 206 206 205 198 199 202 199 211 212 217 216 220 230 236 240 231 223 218 220 219 219 220 225 230 239 250 254 258 263 268 278 287 291 297 303
203 201 206 207 206 204 206 207 210 200 203 203 201 198 206 215 215 213 217 229 235 241 238 229 222 222 221 217 212 217 228 241 249 256 259 261 264 269 277 282 288 296 302
211 206 201 208 208 207 209 209 211 211 208 205 209 214 217 215 218 217 228 232 236 242 234 226 221 219 220 213 208 224 244 259 258 256 257 260 266 268 273 277 284 289 292
210 211 210 213 212 210 204 197 210 209 208 211 214 216 215 211 216 223 226 235 237 238 234 227 222 221 228 221 215 211 207 236 259 274 258 261 265 267 271 274 279 282 286
206 211 216 218 217 212 198 199 211 212 212 216 218 215 212 210 216 222 227 233 237 237 233 228 225 224 227 228 230 238 244 235 236 273 280 274 267 264 268 270 277 281 283
208 215 217 217 222 217 206 202 206 216 216 219 220 211 213 216 217 224 230 234 235 234 230 228 226 228 226 235 240 252 251 250 249 241 261 280 277 271 266 268 277 279 282
208 208 212 213 213 206 204 210 217 214 213 213 213 212 217 219 221 226 231 233 233 231 228 224 221 218 224 234 243 247 252 255 267 251 253 253 275 283 274 272 274 276 279